Regional Weather Roundup
Issued by NWS Grand Forks, ND

Home | Current Version | Previous Version | Text Only | Print | Product List | Glossary On
Versions: 1 2 3 4 5 6 7 8 9 10 11 12 13 14 15 16 17 18 19 20 21 22 23 24 25 26 27 28 29 30 31 32 33 34 35 36 37 38 39 40 41 42 43 44 45 46 47 48 49 50
478
ASUS43 KFGF 170810
RWRFGF
PRAIRIE TO PINES  WEATHER ROUNDUP
NATIONAL WEATHER SERVICE EASTERN NORTH DAKOTA/GRAND FORKS ND
200 AM CST TUE JAN 17 2017

 **SATELLITE DATA USED TO AUGMENT SKY COVER AT AUTOMATED STATIONS**
 *****  WEATHER ACROSS EASTERN NORTH DAKOTA  *****

CITY           SKY/WX    TMP DP  RH WIND       PRES   REMARKS
GRAND FORKS    FAIR       3  -2  79 SW6       30.00R WCI  -8
GRAND FRKS AFB FAIR       7   4  86 W3        29.99F
DEVILS LAKE    FAIR       7   4  87 W9        29.97F WCI  -7
FARGO          FAIR       2  -1  88 W8        30.02R WCI -12
WAHPETON ARPT  FAIR       3   0  85 SW3       30.02S
$$

 ***** WEATHER ACROSS CENTRAL AND WESTERN NORTH DAKOTA  *****

CITY           SKY/WX    TMP DP  RH WIND       PRES   REMARKS
BISMARCK       FAIR       7   3  84 W3        30.03F
MINOT          FAIR      17  12  80 SW10      29.95F WCI   5
JAMESTOWN      FAIR      10   7  87 W5        29.97F WCI   2
MINOT AFB      NOT AVBL
GARRISON         N/A     10   7  87 CALM      29.99F
WILLISTON      FAIR       7   5  91 S6        29.96F WCI  -3
DICKINSON      FAIR      16   8  71 SW5       29.95F WCI   9
HETTINGER      FAIR       6   1  80 W5        30.01F WCI  -3
$$

 *****  OTHER AIRPORT OBSERVATIONS IN OUR AREA  *****

CITY           SKY/WX    TMP DP  RH WIND       PRES   REMARKS
WALHALLA       NOT AVBL
GRAFTON AIRPOR FAIR       1  -2  85 CALM      30.00F
VALLEY CITY AR FAIR      10  10 100 N9        30.00S WCI  -2
CANDO          NOT AVBL
CAVALIER APRT    N/A      1   0  92 S5        29.95F WCI  -8
GWINNER        FAIR      10   9  92 W10       30.01S WCI  -3
SHEYENNE NWR     N/A      1  -4  80 W2        29.95S
ROLLA            N/A    N/A N/A N/A MISG        N/A
 ***** THE ABOVE OBSERVATIONS ARE NON NWS ARE NOT QUALITY
       CONTROLLED AND MAY MIS-REPORT RAIN FOR SNOW...
$$

  *****  WEATHER ACROSS NORTHERN MINNESOTA  *****

CITY           SKY/WX    TMP DP  RH WIND       PRES   REMARKS
FLAG ISLAND    FAIR       1  -2  85 SE6       29.96S WCI -10
WARROAD        FAIR       1  -2  85 CALM      29.97F
ROSEAU         FAIR       1  -4  78 CALM      29.98R
HALLOCK        FAIR       1   0  92 S8        29.98F WCI -12
THF RVR FALLS  FAIR       3  -1  83 S3        29.99S FOG
BAUDETTE       FAIR      -1  -5  82 CALM      29.96F
WASKISH        FAIR       1  -2  85 CALM      29.97F
CROOKSTON      FAIR       1   0  92 S3        30.02S
GREENBUSH NDAW   N/A      0  -2  92 SE3         N/A
$$
  *****  WEATHER ACROSS CENTRAL AND WEST MINNESOTA  *****

CITY           SKY/WX    TMP DP  RH WIND       PRES   REMARKS
FOSSTON        FAIR       3   1  92 S5        29.98S FOG     WCI  -6
BEMIDJI        FAIR       4   1  89 CALM      29.97S
PARK RAPIDS    FAIR       2  -5  72 CALM      29.97S HAZE
ELBOW LAKE     SNOW       4   1  90 CALM      30.00F VSB 1/4
WADENA         FAIR       1   0  92 CALM      29.97F FOG
DETROIT LAKES  FAIR       5   3  92 SE5       29.97F WCI  -4
MOORHEAD       FAIR       1  -2  85 S5        30.02R WCI  -8
FERGUS FALLS   FAIR       9   7  92 CALM      30.05F
MORRIS MN      FAIR       7   5  92 N3        30.00F
STAPLES        FAIR       0  -2  92 CALM      29.99S FOG
$$
  *****  WEATHER ELSEWHERE ACROSS MINNESOTA  *****

CITY           SKY/WX    TMP DP  RH WIND       PRES   REMARKS
DULUTH         FAIR      21  16  81 N3        29.96F
INTRNTL FALLS  FAIR       1  -4  79 CALM      29.97S
ELY            FAIR       1  -2  85 CALM      29.98R
CLOQUET        FAIR      16  12  86 CALM      29.97S
WHEATON        FAIR      10   9  92 CALM      30.03F
BRAINERD       CLOUDY    10   9  95 CALM      29.99S FOG
HIBBING        FAIR       0  -2  91 CALM      29.97S
ALEXANDRIA     FAIR      10   9  95 NW3       29.98F FOG
SAINT CLOUD    CLOUDY    27  23  85 CALM      29.97F
MINNEAPOLIS    LGT SNOW  30  27  88 N6        29.94F FOG     WCI  24
$$

  *****  WEATHER ACROSS SOUTH DAKOTA  *****

CITY           SKY/WX    TMP DP  RH WIND       PRES   REMARKS
SIOUX FALLS    FOG       22  22 100 W8        29.99S VSB 1/2 WCI  12
BROOKINGS      NOT AVBL
WATERTOWN      FAIR       1  -2  87 CALM      29.97F FOG
HURON          FAIR       4   2  91 NW7       30.04F WCI  -8
SISSETON         N/A      6   5  95 CALM      30.00F
ABERDEEN       FAIR       2  -1  88 W7        30.04S WCI -11
MITCHELL       FAIR      10   7  87 W7        30.05F WCI  -1
PIERRE         FAIR      15  11  83 W7        30.05F WCI   5
MOBRIDGE       FAIR      11   6  81 NW7       30.02S WCI   0
RAPID CITY     FAIR      17   9  70 CALM      30.03F
$$

  *****  SOME WEATHER IN NEARBY STATES *****

CITY           SKY/WX    TMP DP  RH WIND       PRES   REMARKS
GLASGOW MT     FAIR       8   4  83 SE10      29.88F WCI  -6
GREAT FALLS MT FAIR      34  17  50 S23       29.88F WCI  22
CHEYENNE WY    FAIR      15   8  73 W7        30.05F WCI   5
SCOTTSBLUFF NE FAIR      19  13  77 NW8       30.07F WCI   9
OMAHA NE       CLOUDY    33  28  81 NW16      29.99R HAZE    WCI  23
DES MOINES IA  DRZL/FOG  34  32  92 NW12      29.90S VSB 3/4
DAVENPORT IA   FOG       34  33  96 NW3       29.81S VSB 1/2
CHICAGO IL     TSTM      38  38 100 NE3       29.76S FOG
EAU CLAIRE WI  LGT SNOW  33  32  96 NE8       29.90S FOG
LA CROSSE WI   CLOUDY    36  32  85 NW7       29.87F FOG
$$

  *****  SOME NATIONAL WEATHER *****

CITY           SKY/WX    TMP DP  RH WIND       PRES   REMARKS
LA GUARDIA NY  CLOUDY    42  27  55 SW7       30.25F
RALEIGH NC     CLOUDY    48  43  82 W3        30.27S
ATLANTA GA     MOCLDY    56  55  97 E7        30.23R FOG
NEW ORLEANS LA MOCLDY    66  65  96 SE6       30.11F
OKLAHOMA CITY  FAIR      37  33  85 NW12      30.10S
ALBUQUERQUE NM CLOUDY    40  35  83 E10       30.10F
SALT LAKE CITY FAIR      21  17  84 CALM      30.29F
LOS ANGELES CA FAIR      53  51  93 VRB5      30.07S
BOISE ID       FAIR       2  -1  88 CALM      30.41S FOG
SEATTLE WA     CLOUDY    42  34  73 W3        29.94S
$$

*** WEATHER ACROSS MANITOBA...SASKATCHEWAN AND ONTARIO ***
                ***ONTARIO***

CITY           SKY/WX    TMP DP  RH WIND       PRES   REMARKS
GERALDTON      MOCLDY    10   9  92 NE2       30.03F
THUNDER BAY    CLOUDY    23  19  86 VRB2      30.03F
SIOUX LOOKOUT  CLEAR      1  -2  85 S2        29.96
TORONTO        LGT RAIN  34  23  64 E5        30.16S
BIG TROUT LK   CLEAR     18  16  93 SW9       29.90S WCI   6
PICKLE LAKE    NOT AVBL
DRYDEN         CLEAR     10  10 100 S5        29.94F WCI   2
KENORA         CLEAR     12   9  85 S5        29.94S WCI   4
$$
                *** MANITOBA***

CITY           SKY/WX    TMP DP  RH WIND       PRES   REMARKS
BRANDON        CLEAR      5   1  85 W12       29.93F WCI -11
DAUPHIN        CLEAR     32  21  64 SW9       29.83F WCI  24
ISLAND LAKE    NOT AVBL
PILOT MOUND      N/A      7   5  92 SW5         N/A  WCI  -2
THE PAS        MOCLDY    30  19  64 S12       29.60F WCI  21
THOMPSON       MOCLDY    27  23  86 S7        29.49F WCI  19
WINNIPEG       PTCLDY     5   1  85 SW6       29.96F WCI  -6
LYNN LAKE      CLEAR     30  27  86 SW10      29.36F WCI  21
CHURCHILL      CRYSTALS  23  21  93 SW14      29.35F WCI  11
GILLAM         CLOUDY    28  25  86 S16G26    29.49F WCI  17
$$
                ***SASKATCHEWAN***

CITY           SKY/WX    TMP DP  RH WIND       PRES   REMARKS
ESTEVAN        CLEAR     16  10  79 SW13      29.90F WCI   2
KINDERSLEY     MOCLDY    25  19  80 SW16      29.54F WCI  12
LLOYDMINSTER   MOCLDY    25  18  74 S15       29.40F WCI  12
PRINCE ALBERT  CLOUDY    25  16  68 SW7       29.56F WCI  17
REGINA         MOCLDY    18  12  79 S15       29.77F WCI   3
YORKTON        CLEAR     23  18  80 S13       29.78F WCI  11
N. BATTLEFORD  CLEAR     25  16  68 SE7       29.51F WCI  17
LA RONGE       MOCLDY    32  19  59 S9        29.42F WCI  24
SASKATOON      CLEAR     25  16  68 S16G22    29.61F WCI  12
SWIFT CURRENT  CLEAR     27  19  74 SW23G29   29.65F WCI  12
$$
NOTE: THESE ARE AUTOMATED STATIONS WITH LIMITED QUALITY CONTROL
      "FAIR" INDICATES FEW OR NO CLOUDS BELOW 12,000 FEET WITH NO
      SIGNIFICANT WEATHER AND/OR OBSTRUCTIONS TO VISIBILITY.
      SKY/WX - SKY CONDITION AND SIGNIFICANT WEATHER.
      TMP - AIR TEMPERATURE.    DP   - DEWPOINT TEMPERATURE.
      RH  - RELATIVE HUMIDITY.  PRES - PRESSURE.
      HX  - HEAT INDEX.         WCI  - WIND CHILL INDEX.
$




USA.gov is the U.S. government's official web portal to all federal, state and local government web resources and services.